DW0893 Weather Reports


Display with metric or nautical units.
time (UTC)temp
F
wind
direction
speed
MPH
gust
MPH
rain 1hr
in
rain 24hr
in
rain mn
in
humidity
%
barometer
mb
20260505183557 57 3 2.0 10.0 0.00 0.00 0.00 67 1011.6
20260505183058 57 1 3.0 10.0 0.00 0.00 0.00 66 1011.6
20260505182556 57 44 3.0 10.0 0.00 0.00 0.00 66 1011.5
20260505182056 57 18 4.0 10.0 0.00 0.00 0.00 66 1011.6
20260505181558 58 5 2.0 10.0 0.00 0.00 0.00 66 1011.5
20260505181056 58 342 3.0 10.0 0.00 0.00 0.00 66 1011.6
20260505180557 58 14 3.0 8.0 0.00 0.00 0.00 66 1011.6
20260505175559 57 7 1.0 9.0 0.00 0.00 0.00 67 1011.5
20260505175059 57 5 3.0 9.0 0.00 0.00 0.00 67 1011.5
20260505174605 57 20 1.0 8.0 0.00 0.00 0.00 68 1011.6
20260505174058 57 9 1.0 5.0 0.00 0.00 0.00 68 1011.5
20260505173556 57 8 0.0 5.0 0.00 0.00 0.00 68 1011.6
20260505173059 57 0 1.0 7.0 0.00 0.00 0.00 68 1011.7
20260505172556 57 1 2.0 7.0 0.00 0.00 0.00 68 1011.7
20260505172057 57 0 2.0 5.0 0.00 0.00 0.00 69 1011.7
20260505171557 57 7 1.0 5.0 0.00 0.00 0.00 69 1011.6
20260505171058 57 0 2.0 8.0 0.00 0.00 0.00 68 1011.7
20260505170556 57 9 3.0 9.0 0.00 0.00 0.00 68 1011.7
20260505170109 57 0 1.0 9.0 0.00 0.00 0.00 68 1011.7
20260505165556 58 18 3.0 9.0 0.00 0.00 0.00 68 1011.7
20260505165058 58 13 3.0 8.0 0.00 0.00 0.00 67 1011.8
20260505164555 58 8 1.0 8.0 0.00 0.00 0.00 68 1011.7
20260505164058 58 5 2.0 8.0 0.00 0.00 0.00 67 1011.8
20260505163559 58 350 2.0 7.0 0.00 0.00 0.00 67 1011.7
20260505163059 58 0 3.0 9.0 0.00 0.00 0.00 66 1011.7
20260505162559 58 24 3.0 10.0 0.00 0.00 0.00 66 1011.9
20260505162057 59 19 4.0 10.0 0.00 0.00 0.00 66 1011.8
20260505161615 59 355 5.0 10.0 0.00 0.00 0.00 65 1011.8
20260505161056 59 12 4.0 9.0 0.00 0.00 0.00 64 1011.9
20260505160556 59 4 4.0 9.0 0.00 0.00 0.00 63 1011.8
20260505153105 59 28 1.0 8.0 0.00 0.00 0.00 64 1011.8
20260505152558 59 28 3.0 8.0 0.00 0.00 0.00 63 1011.9
20260505152058 59 18 3.0 8.0 0.00 0.00 0.00 64 1011.9
20260505151605 59 36 1.0 5.0 0.00 0.00 0.00 65 1011.8
20260505151059 59 37 1.0 4.0 0.00 0.00 0.00 64 1012.0
20260505150558 58 0 1.0 4.0 0.00 0.00 0.00 64 1012.1
20260505140556 58 12 2.0 10.0 0.00 0.00 0.00 65 1012.2
20260505140104 58 11 4.0 9.0 0.00 0.00 0.00 65 1012.2
20260505124557 59 19 4.0 9.0 0.00 0.00 0.00 64 1012.4
20260505124057 59 0 2.0 5.0 0.00 0.00 0.00 64 1012.4
20260505123558 59 0 1.0 5.0 0.00 0.00 0.00 64 1012.4
20260505123059 59 0 2.0 8.0 0.00 0.00 0.00 65 1012.4
20260505122556 59 360 2.0 8.0 0.00 0.00 0.00 66 1012.4
20260505122056 59 350 2.0 9.0 0.00 0.00 0.00 65 1012.4
20260505121625 59 42 3.0 9.0 0.00 0.00 0.00 65 1012.4
20260505121056 59 9 2.0 9.0 0.00 0.00 0.00 67 1012.4
20260505120556 59 355 4.0 9.0 0.00 0.00 0.00 66 1012.4
20260505120058 59 355 4.0 10.0 0.00 0.00 0.00 68 1012.4
20260505115600 59 14 2.0 10.0 0.00 0.00 0.00 68 1012.5
20260505115058 58 5 4.0 10.0 0.00 0.00 0.00 68 1012.5
20260505114556 58 30 4.0 9.0 0.00 0.00 0.00 68 1012.6
20260505114056 58 0 1.0 9.0 0.00 0.00 0.00 71 1012.6
20260505113555 57 39 3.0 9.0 0.00 0.00 0.00 71 1012.5
20260505113058 57 355 3.0 9.0 0.00 0.00 0.00 73 1012.6
20260505112556 56 12 3.0 8.0 0.00 0.00 0.00 75 1012.7
20260505112056 55 18 2.0 6.0 0.00 0.00 0.00 75 1012.9
20260505111557 55 42 2.0 6.0 0.00 0.00 0.00 75 1012.9
20260505111056 55 43 2.0 7.0 0.00 0.00 0.00 75 1012.8
20260505110557 55 43 2.0 7.0 0.00 0.00 0.00 75 1012.9
20260505102055 54 22 3.0 9.0 0.00 0.00 0.00 77 1013.0
20260505101559 54 45 2.0 9.0 0.00 0.00 0.00 78 1013.1
20260505101055 54 43 4.0 9.0 0.00 0.00 0.00 78 1013.1
20260505100557 54 33 3.0 8.0 0.00 0.00 0.00 78 1013.0
20260505095600 54 16 1.0 8.0 0.00 0.00 0.00 79 1013.1
20260505095056 53 0 1.0 10.0 0.00 0.00 0.00 78 1013.0
20260505094601 54 53 4.0 10.0 0.00 0.00 0.00 78 1013.1
20260505094056 54 7 3.0 10.0 0.00 0.00 0.00 78 1013.2
20260505093556 54 19 3.0 8.0 0.00 0.00 0.00 79 1013.1
20260505093100 54 20 2.0 7.0 0.00 0.00 0.00 80 1013.1
20260505092601 54 38 3.0 8.0 0.00 0.00 0.00 80 1013.0
20260505092056 53 31 3.0 8.0 0.00 0.00 0.00 80 1013.1
20260505091557 53 28 1.0 6.0 0.00 0.00 0.00 80 1013.2
20260505091100 53 31 2.0 10.0 0.00 0.00 0.00 80 1013.2
20260505090556 53 32 3.0 10.0 0.00 0.00 0.00 80 1013.1
20260505090106 53 44 5.0 10.0 0.00 0.00 0.00 81 1013.3
20260505085556 53 39 3.0 9.0 0.00 0.00 0.00 81 1013.3
20260505085057 53 15 3.0 9.0 0.00 0.00 0.00 82 1013.4
20260505084559 53 25 1.0 10.0 0.00 0.00 0.00 83 1013.4
20260505084057 53 29 3.0 10.0 0.00 0.00 0.00 82 1013.3
20260505083556 53 332 4.0 8.0 0.00 0.00 0.00 83 1013.3
20260505083104 53 51 3.0 10.0 0.00 0.00 0.00 83 1013.4
20260505082556 53 27 3.0 10.0 0.00 0.00 0.00 84 1013.4
20260505082056 53 21 5.0 10.0 0.00 0.00 0.00 84 1013.3
20260505081602 52 17 2.0 10.0 0.00 0.00 0.00 84 1013.4
20260505081058 52 17 4.0 10.0 0.00 0.00 0.00 84 1013.5
20260505080558 52 33 4.0 10.0 0.00 0.00 0.00 84 1013.3
20260505075557 52 27 4.0 10.0 0.00 0.00 0.00 84 1013.4
20260505075056 52 31 3.0 9.0 0.00 0.00 0.00 84 1013.4
20260505074609 52 28 3.0 10.0 0.00 0.00 0.00 84 1013.3
20260505074059 52 24 4.0 10.0 0.00 0.00 0.00 84 1013.3
20260505073557 52 18 3.0 10.0 0.00 0.00 0.00 84 1013.3
20260505073059 52 18 3.0 10.0 0.00 0.00 0.00 85 1013.6
20260505072558 52 23 2.0 6.0 0.00 0.00 0.00 85 1013.4
20260505072055 52 0 1.0 8.0 0.00 0.00 0.00 85 1013.5
20260505071558 52 18 3.0 10.0 0.00 0.00 0.00 86 1013.5
20260505071056 52 20 2.0 10.0 0.00 0.00 0.00 86 1013.4
20260505070557 52 20 4.0 10.0 0.00 0.00 0.00 86 1013.4
20260505070059 52 39 2.0 7.0 0.00 0.00 0.00 87 1013.4
20260505065557 52 39 2.0 7.0 0.00 0.00 0.00 87 1013.5
20260505065056 52 27 2.0 6.0 0.00 0.00 0.00 88 1013.5
20260505064600 52 27 3.0 7.0 0.00 0.00 0.00 88 1013.5
20260505064056 52 28 1.0 7.0 0.00 0.00 0.00 89 1013.4
20260505063557 52 36 3.0 7.0 0.00 0.00 0.00 89 1013.5
20260505063059 51 36 2.0 6.0 0.00 0.00 0.00 90 1013.4
20260505062558 51 36 1.0 6.0 0.00 0.00 0.00 90 1013.4
20260505062058 51 35 0.0 5.0 0.00 0.00 0.00 90 1013.3
20260505061607 51 34 1.0 5.0 0.00 0.00 0.00 90 1013.3
20260505061058 51 34 0.0 5.0 0.00 0.00 0.00 90 1013.2
20260505060558 51 34 1.0 5.0 0.00 0.00 0.00 90 1013.3
20260505060103 50 0 2.0 5.0 0.00 0.00 0.00 90 1013.3
20260505055559 50 34 1.0 4.0 0.00 0.00 0.00 90 1013.3
20260505055058 50 34 1.0 4.0 0.00 0.00 0.00 90 1013.4
20260505054559 50 34 0.0 6.0 0.00 0.00 0.00 90 1013.3
20260505054058 50 0 1.0 6.0 0.00 0.00 0.00 90 1013.3
20260505053557 50 0 0.0 5.0 0.00 0.00 0.00 90 1013.4
20260505053106 50 34 2.0 5.0 0.00 0.00 0.00 90 1013.5
20260505052602 50 0 1.0 5.0 0.00 0.00 0.00 90 1013.5
20260505052056 50 0 0.0 5.0 0.00 0.00 0.00 90 1013.5
20260505051557 50 0 1.0 5.0 0.00 0.00 0.00 90 1013.4
20260505051058 50 34 1.0 4.0 0.00 0.00 0.00 90 1013.4
20260505050558 50 0 1.0 7.0 0.00 0.00 0.00 90 1013.5
20260505041558 50 41 1.0 6.0 0.00 0.00 0.00 89 1013.6
20260505041059 50 42 0.0 6.0 0.00 0.00 0.00 89 1013.7
20260505040601 50 44 2.0 5.0 0.00 0.00 0.00 89 1013.7
20260505040057 50 46 0.0 3.0 0.00 0.00 0.00 89 1013.6
20260505035558 50 46 0.0 4.0 0.00 0.00 0.00 88 1013.7
20260505035057 50 0 1.0 4.0 0.00 0.00 0.00 88 1013.7
20260505034601 50 0 1.0 3.0 0.00 0.00 0.00 88 1013.7
20260505034058 50 0 0.0 3.0 0.00 0.00 0.00 88 1013.7
20260505033557 50 0 0.0 3.0 0.00 0.00 0.00 88 1013.7
20260505033114 51 0 0.0 2.0 0.00 0.00 0.00 88 1013.7
20260505032557 51 0 0.0 3.0 0.00 0.00 0.00 88 1013.6
20260505032056 51 0 0.0 3.0 0.00 0.00 0.00 88 1013.8
20260505031559 51 0 0.0 1.0 0.00 0.00 0.00 88 1013.6
20260505031100 51 0 0.0 1.0 0.00 0.00 0.00 88 1013.7
20260505030559 51 0 0.0 0.0 0.00 0.00 0.00 87 1013.6
20260505030105 51 0 0.0 3.0 0.00 0.00 0.00 87 1013.6
20260505025556 51 0 0.0 3.0 0.00 0.00 0.00 87 1013.7
20260505025057 51 0 0.0 3.0 0.00 0.00 0.00 87 1013.8
20260505024604 51 0 0.0 3.0 0.00 0.00 0.00 87 1013.7
20260505024056 51 0 0.0 5.0 0.00 0.00 0.00 87 1013.7
20260505023556 51 46 1.0 5.0 0.00 0.00 0.00 87 1013.6
20260505023107 51 46 1.0 4.0 0.00 0.00 0.00 87 1013.7
20260505022556 51 46 0.0 4.0 0.00 0.00 0.00 87 1013.8
20260505022059 51 46 1.0 4.0 0.00 0.00 0.00 87 1013.7
20260505021557 51 47 0.0 4.0 0.00 0.00 0.00 86 1013.7
20260505021056 51 0 1.0 4.0 0.00 0.00 0.00 86 1013.7
20260505020556 51 0 0.0 4.0 0.00 0.00 0.00 87 1013.7
20260505020058 51 0 0.0 2.0 0.00 0.00 0.00 86 1013.8
20260505015559 52 0 0.0 3.0 0.00 0.00 0.00 86 1013.9
20260505015059 52 0 0.0 3.0 0.00 0.00 0.00 86 1013.9
20260505014557 52 47 0.0 3.0 0.00 0.00 0.00 86 1013.9
20260505014055 52 0 0.0 2.0 0.00 0.00 0.00 86 1013.9
20260505013558 52 0 0.0 3.0 0.00 0.00 0.00 86 1014.0
20260505013058 52 0 0.0 4.0 0.00 0.00 0.00 86 1014.3
20260505012556 52 0 0.0 4.0 0.00 0.00 0.00 85 1014.1
20260505012056 52 47 0.0 4.0 0.00 0.00 0.00 85 1014.1
20260505011601 52 47 1.0 4.0 0.00 0.00 0.00 85 1014.1
20260505011100 52 47 1.0 4.0 0.00 0.00 0.00 85 1014.2
20260505010556 52 0 1.0 4.0 0.00 0.00 0.00 85 1014.2
20260505005556 52 47 0.0 2.0 0.00 0.00 0.00 85 1014.2
20260505005056 52 0 0.0 2.0 0.00 0.00 0.00 85 1014.4
20260505004602 52 0 0.0 3.0 0.00 0.00 0.00 85 1014.3
20260505004100 53 0 0.0 4.0 0.00 0.00 0.00 85 1014.4
20260505003559 53 0 0.0 4.0 0.00 0.00 0.00 84 1014.2
20260505003102 53 47 0.0 4.0 0.00 0.00 0.00 84 1014.2
20260505002557 53 47 0.0 4.0 0.00 0.00 0.00 84 1014.3
20260505002056 53 0 0.0 4.0 0.00 0.00 0.00 84 1014.5
20260505001558 53 0 1.0 4.0 0.00 0.00 0.00 84 1014.5
20260505001101 53 0 0.0 3.0 0.00 0.00 0.00 84 1014.5
20260505000558 53 46 0.0 5.0 0.00 0.00 0.00 84 1014.5
20260505000101 53 0 0.0 7.0 0.00 0.00 0.00 84 1014.6
20260504235556 53 45 3.0 7.0 0.00 0.00 0.00 84 1014.5
20260504235058 53 46 1.0 7.0 0.00 0.00 0.00 84 1014.6
20260504234619 53 46 2.0 7.0 0.00 0.00 0.00 84 1014.7
20260504234056 53 47 2.0 6.0 0.00 0.00 0.00 84 1014.6
20260504233556 53 0 2.0 6.0 0.00 0.00 0.00 84 1014.5
20260504233058 53 47 1.0 6.0 0.00 0.00 0.00 84 1014.6
20260504232559 53 47 3.0 9.0 0.00 0.00 0.00 84 1014.6
20260504232056 53 45 3.0 9.0 0.00 0.00 0.00 84 1014.6
20260504231605 53 49 2.0 7.0 0.00 0.00 0.00 84 1014.8
20260504231056 53 0 1.0 6.0 0.00 0.00 0.00 84 1014.7
20260504230559 54 47 2.0 6.0 0.00 0.00 0.00 84 1014.8
20260504230100 54 45 1.0 4.0 0.00 0.00 0.00 84 1014.7
20260504225556 54 0 0.0 4.0 0.00 0.00 0.00 84 1014.8
20260504225058 54 0 0.0 4.0 0.00 0.00 0.00 84 1015.0
20260504224608 54 45 1.0 5.0 0.00 0.00 0.00 83 1014.9
20260504224056 54 0 1.0 5.0 0.00 0.00 0.00 83 1014.9
20260504223556 54 0 0.0 4.0 0.00 0.00 0.00 83 1014.8
20260504223059 54 0 0.0 4.0 0.00 0.00 0.00 83 1014.8
20260504222559 54 45 0.0 5.0 0.00 0.00 0.00 83 1014.8
20260504222102 54 45 1.0 5.0 0.00 0.00 0.00 83 1014.8
20260504221604 54 45 1.0 5.0 0.00 0.00 0.00 82 1014.9
20260504221100 54 45 1.0 9.0 0.00 0.00 0.00 82 1014.8
20260504220559 54 45 3.0 9.0 0.00 0.00 0.00 82 1015.0
20260504220057 55 50 0.0 7.0 0.00 0.00 0.00 82 1014.9
20260504215557 55 50 2.0 7.0 0.00 0.00 0.00 82 1015.1
20260504215056 55 51 2.0 9.0 0.00 0.00 0.00 82 1014.9
20260504214603 55 40 3.0 9.0 0.00 0.00 0.00 82 1015.0
20260504214056 55 30 3.0 9.0 0.00 0.00 0.00 82 1015.0
20260504213556 55 34 4.0 9.0 0.00 0.00 0.00 82 1014.9
20260504213105 55 48 3.0 9.0 0.00 0.00 0.00 82 1015.1
20260504212555 55 54 3.0 8.0 0.00 0.00 0.00 83 1015.0
20260504212059 55 33 2.0 8.0 0.00 0.00 0.00 83 1015.1
20260504211557 55 31 2.0 8.0 0.00 0.00 0.00 83 1015.0
20260504211056 55 0 0.0 7.0 0.00 0.00 0.00 83 1015.0
20260504210556 55 41 1.0 6.0 0.00 0.00 0.00 83 1015.0
20260504210105 55 41 1.0 6.0 0.00 0.00 0.00 83 1015.0
20260504205558 55 41 1.0 4.0 0.00 0.00 0.00 82 1015.1
20260504205058 55 42 1.0 4.0 0.00 0.00 0.00 82 1015.0
20260504204636 55 42 1.0 5.0 0.00 0.00 0.00 82 1014.9
20260504204056 55 43 1.0 6.0 0.00 0.00 0.00 82 1015.0
20260504203556 55 42 1.0 6.0 0.00 0.00 0.00 81 1014.9
20260504203059 56 43 2.0 6.0 0.00 0.00 0.00 81 1014.8
20260504202556 56 0 1.0 5.0 0.00 0.00 0.00 81 1014.8
20260504202100 56 0 1.0 5.0 0.00 0.00 0.00 81 1014.8
20260504201559 56 51 0.0 3.0 0.00 0.00 0.00 81 1014.8
20260504201059 56 51 0.0 4.0 0.00 0.00 0.00 81 1014.8
20260504200559 56 51 0.0 4.0 0.00 0.00 0.00 81 1014.8
20260504195559 56 51 0.0 4.0 0.00 0.00 0.00 81 1014.7
20260504195101 56 51 1.0 4.0 0.00 0.00 0.00 81 1014.7
20260504194558 57 51 0.0 5.0 0.00 0.00 0.00 80 1014.6
20260504194059 57 0 0.0 5.0 0.00 0.00 0.00 80 1014.6
20260504193601 57 51 2.0 5.0 0.00 0.00 0.00 80 1014.6
20260504193059 57 53 1.0 5.0 0.00 0.00 0.00 80 1014.6
20260504192556 57 0 0.0 5.0 0.00 0.00 0.00 80 1014.5
20260504192056 57 53 0.0 5.0 0.00 0.00 0.00 80 1014.6
20260504191601 57 0 2.0 6.0 0.00 0.00 0.00 80 1014.6
20260504191142 57 53 2.0 6.0 0.00 0.00 0.00 80 1014.4
20260504190559 57 0 1.0 5.0 0.00 0.00 0.00 79 1014.5
20260504185558 57 0 3.0 6.0 0.00 0.00 0.00 79 1014.4
20260504185100 57 53 1.0 5.0 0.00 0.00 0.00 79 1014.4
20260504184606 57 0 2.0 6.0 0.00 0.00 0.00 79 1014.4
20260504184059 57 0 1.0 8.0 0.00 0.00 0.00 79 1014.3